{"data":{"norad_id":59306,"epoch":"2026-05-25T01:07:44.853024Z","epoch_age_seconds":77819,"freshness":"FRESH","line1":"1 59306U 24056L   26145.04704691  .00000168  00000+0  15644-4 0  9997","line2":"2 59306  43.0012 159.3560 0001241 266.8933  93.1777 15.27576190122832","mean_motion":15.2757619,"eccentricity":0.0001241,"inclination_deg":43.0012,"raan_deg":159.356,"arg_perigee_deg":266.8933,"mean_anomaly_deg":93.1777,"bstar":1.5644e-5,"rev_number":12283,"period_min":94.266983828807,"perigee_km":482.20902996369,"apogee_km":483.91197918432,"semimajor_km":6861.197504574,"source":"CELESTRAK","updated_at":"2026-05-25T13:38:18.899768Z"}}